Previsão horária em Celejow

Hoje, 31 Julho, Sábado

Tempo Temperatura Precipitação Vento Pressão Humidade
00:00 +20°C° 0 mm 1 m/s 741 mmHg 68%
01:00 +20°C° 0 mm 1 m/s 741 mmHg 70%
02:00 +20°C° 0 mm 1 m/s 741 mmHg 72%
03:00 +19°C° 0 mm 1 m/s 741 mmHg 74%
04:00 +19°C° 0 mm 1 m/s 741 mmHg 77%
05:00 +21°C° 0 mm 1 m/s 741 mmHg 71%
06:00 +23°C° 0 mm 2 m/s 741 mmHg 65%
07:00 +25°C° 0 mm 2 m/s 741 mmHg 59%
08:00 +27°C° 0 mm 2 m/s 741 mmHg 54%
09:00 +28°C° 0 mm 3 m/s 741 mmHg 50%
10:00 +30°C° 0 mm 4 m/s 741 mmHg 46%
11:00 +32°C° 0 mm 4 m/s 741 mmHg 43%
12:00 +33°C° 0 mm 5 m/s 740 mmHg 40%
13:00 +33°C° 0 mm 5 m/s 740 mmHg 36%
14:00 +30°C° 0.3 mm 6 m/s 740 mmHg 45%
15:00 +28°C° 0.3 mm 6 m/s 740 mmHg 53%
16:00 +26°C° 0.3 mm 7 m/s 740 mmHg 62%
17:00 +23°C° 0.9 mm 5 m/s 741 mmHg 70%
18:00 +21°C° 0.9 mm 4 m/s 741 mmHg 79%
19:00 +19°C° 0.9 mm 2 m/s 741 mmHg 87%
20:00 +18°C° 0 mm 3 m/s 741 mmHg 89%
21:00 +18°C° 0 mm 3 m/s 742 mmHg 91%
22:00 +18°C° 0 mm 3 m/s 742 mmHg 93%
23:00 +17°C° 0 mm 3 m/s 742 mmHg 94%

Amanhã, 1 Agosto, Domingo

Tempo Temperatura Precipitação Vento Pressão Humidade
00:00 +17°C° 0 mm 3 m/s 742 mmHg 94%
01:00 +17°C° 0 mm 3 m/s 742 mmHg 94%
02:00 +17°C° 0 mm 2 m/s 742 mmHg 94%
03:00 +16°C° 0 mm 2 m/s 742 mmHg 93%
04:00 +16°C° 0 mm 2 m/s 742 mmHg 93%
05:00 +19°C° 0 mm 1 m/s 742 mmHg 86%
06:00 +20°C° 0 mm 1 m/s 742 mmHg 79%
07:00 +22°C° 0 mm 1 m/s 743 mmHg 72%
08:00 +24°C° 0 mm 1 m/s 742 mmHg 65%
09:00 +25°C° 0 mm 2 m/s 742 mmHg 58%
10:00 +27°C° 0 mm 2 m/s 742 mmHg 51%
11:00 +27°C° 0 mm 3 m/s 741 mmHg 52%
12:00 +27°C° 0 mm 3 m/s 741 mmHg 53%
13:00 +27°C° 0 mm 3 m/s 740 mmHg 53%
14:00 +27°C° 0.3 mm 3 m/s 740 mmHg 56%
15:00 +27°C° 0.3 mm 2 m/s 740 mmHg 58%
16:00 +26°C° 0.3 mm 2 m/s 740 mmHg 60%
17:00 +24°C° 2.4 mm 3 m/s 739 mmHg 72%
18:00 +21°C° 2.4 mm 3 m/s 739 mmHg 83%
19:00 +19°C° 2.4 mm 4 m/s 739 mmHg 94%
20:00 +18°C° 0.5 mm 4 m/s 739 mmHg 95%
21:00 +18°C° 0.5 mm 3 m/s 739 mmHg 96%
22:00 +17°C° 0.5 mm 3 m/s 739 mmHg 96%
23:00 +17°C° 0.4 mm 3 m/s 739 mmHg 96%

Depois de amanhã, 2 Agosto, Segunda-feira

Tempo Temperatura Precipitação Vento Pressão Humidade
00:00 +17°C° 0.4 mm 3 m/s 739 mmHg 97%
01:00 +17°C° 0.4 mm 3 m/s 739 mmHg 97%
02:00 +15°C° 0.3 mm 4 m/s 739 mmHg 97%
03:00 +15°C° 0.3 mm 4 m/s 739 mmHg 96%
04:00 +15°C° 0.3 mm 4 m/s 739 mmHg 96%
05:00 +15°C° 0.8 mm 4 m/s 740 mmHg 96%
06:00 +14°C° 0.8 mm 4 m/s 740 mmHg 95%
07:00 +14°C° 0.8 mm 4 m/s 740 mmHg 95%
08:00 +14°C° 1.4 mm 4 m/s 741 mmHg 95%
09:00 +14°C° 1.4 mm 4 m/s 741 mmHg 95%
10:00 +14°C° 1.4 mm 4 m/s 742 mmHg 96%
11:00 +17°C° 0.5 mm 4 m/s 742 mmHg 89%
12:00 +18°C° 0.5 mm 4 m/s 742 mmHg 82%
13:00 +20°C° 0.5 mm 4 m/s 742 mmHg 75%
14:00 +20°C° 0.2 mm 4 m/s 742 mmHg 71%
15:00 +21°C° 0.2 mm 4 m/s 742 mmHg 66%
16:00 +22°C° 0.2 mm 5 m/s 742 mmHg 61%
17:00 +20°C° 0.2 mm 4 m/s 742 mmHg 69%
18:00 +19°C° 0.2 mm 3 m/s 743 mmHg 77%
19:00 +17°C° 0.2 mm 3 m/s 743 mmHg 85%
20:00 +17°C° 0 mm 3 m/s 743 mmHg 86%
21:00 +16°C° 0 mm 3 m/s 743 mmHg 88%
22:00 +16°C° 0 mm 3 m/s 744 mmHg 89%
23:00 +14°C° 0 mm 3 m/s 744 mmHg 90%

3 Agosto, Terça-feira

Tempo Temperatura Precipitação Vento Pressão Humidade
00:00 +14°C° 0 mm 3 m/s 744 mmHg 91%
01:00 +14°C° 0 mm 3 m/s 744 mmHg 91%
02:00 +13°C° 0 mm 3 m/s 745 mmHg 92%
03:00 +13°C° 0 mm 3 m/s 745 mmHg 93%
04:00 +13°C° 0 mm 3 m/s 745 mmHg 94%
05:00 +14°C° 0 mm 3 m/s 745 mmHg 88%
06:00 +16°C° 0 mm 3 m/s 746 mmHg 81%
07:00 +17°C° 0 mm 3 m/s 746 mmHg 75%
08:00 +18°C° 0 mm 3 m/s 746 mmHg 70%
09:00 +19°C° 0 mm 3 m/s 747 mmHg 66%
10:00 +19°C° 0 mm 3 m/s 747 mmHg 61%
11:00 +20°C° 0 mm 3 m/s 747 mmHg 56%
12:00 +22°C° 0 mm 3 m/s 747 mmHg 51%
13:00 +24°C° 0 mm 3 m/s 746 mmHg 45%
14:00 +24°C° 0 mm 3 m/s 746 mmHg 44%
15:00 +24°C° 0 mm 2 m/s 746 mmHg 43%
16:00 +25°C° 0 mm 2 m/s 746 mmHg 41%
17:00 +23°C° 0 mm 2 m/s 746 mmHg 48%
18:00 +21°C° 0 mm 2 m/s 746 mmHg 54%
19:00 +20°C° 0 mm 1 m/s 746 mmHg 60%
20:00 +18°C° 0 mm 2 m/s 746 mmHg 63%
21:00 +18°C° 0 mm 2 m/s 746 mmHg 65%
22:00 +17°C° 0 mm 2 m/s 746 mmHg 68%
23:00 +16°C° 0 mm 2 m/s 746 mmHg 71%

4 Agosto, Quarta-feira

Tempo Temperatura Precipitação Vento Pressão Humidade
00:00 +16°C° 0 mm 2 m/s 746 mmHg 74%
01:00 +16°C° 0 mm 2 m/s 746 mmHg 76%
02:00 +16°C° 0 mm 2 m/s 745 mmHg 76%
03:00 +16°C° 0 mm 3 m/s 745 mmHg 76%
04:00 +16°C° 0 mm 3 m/s 745 mmHg 76%
05:00 +17°C° 0 mm 3 m/s 745 mmHg 72%
06:00 +18°C° 0 mm 4 m/s 745 mmHg 69%
07:00 +19°C° 0 mm 5 m/s 745 mmHg 65%
08:00 +21°C° 0 mm 5 m/s 744 mmHg 63%
09:00 +22°C° 0 mm 6 m/s 744 mmHg 61%
10:00 +23°C° 0 mm 6 m/s 744 mmHg 60%
11:00 +25°C° 0.5 mm 5 m/s 743 mmHg 61%
12:00 +25°C° 0.5 mm 5 m/s 743 mmHg 63%
13:00 +25°C° 0.5 mm 4 m/s 743 mmHg 65%
14:00 +22°C° 2 mm 4 m/s 742 mmHg 71%
15:00 +21°C° 2 mm 4 m/s 742 mmHg 77%
16:00 +20°C° 2 mm 3 m/s 742 mmHg 84%
17:00 +19°C° 1 mm 3 m/s 742 mmHg 86%
18:00 +18°C° 1 mm 2 m/s 742 mmHg 89%
19:00 +17°C° 1 mm 2 m/s 742 mmHg 92%
20:00 +17°C° 0.2 mm 2 m/s 742 mmHg 93%
21:00 +18°C° 0.2 mm 1 m/s 742 mmHg 93%
22:00 +18°C° 0.2 mm 1 m/s 742 mmHg 94%
23:00 +17°C° 0 mm 2 m/s 742 mmHg 94%

5 Agosto, Quinta-feira

Tempo Temperatura Precipitação Vento Pressão Humidade
00:00 +17°C° 0 mm 3 m/s 742 mmHg 94%
01:00 +16°C° 0 mm 3 m/s 741 mmHg 94%
02:00 +16°C° 0 mm 3 m/s 741 mmHg 95%
03:00 +15°C° 0 mm 4 m/s 741 mmHg 96%
04:00 +14°C° 0 mm 4 m/s 741 mmHg 96%
05:00 +15°C° 0 mm 4 m/s 741 mmHg 94%
06:00 +15°C° 0 mm 5 m/s 741 mmHg 91%
07:00 +15°C° 0 mm 5 m/s 741 mmHg 88%
08:00 +17°C° 0 mm 5 m/s 741 mmHg 79%
09:00 +20°C° 0 mm 5 m/s 741 mmHg 70%
10:00 +21°C° 0 mm 5 m/s 741 mmHg 61%
11:00 +22°C° 0.1 mm 4 m/s 741 mmHg 59%
12:00 +23°C° 0.1 mm 4 m/s 741 mmHg 56%
13:00 +23°C° 0.1 mm 4 m/s 741 mmHg 54%
14:00 +24°C° 0 mm 3 m/s 741 mmHg 56%
15:00 +24°C° 0 mm 3 m/s 741 mmHg 58%
16:00 +23°C° 0 mm 2 m/s 741 mmHg 60%
17:00 +21°C° 0 mm 2 m/s 740 mmHg 65%
18:00 +20°C° 0 mm 2 m/s 740 mmHg 70%
19:00 +20°C° 0 mm 1 m/s 740 mmHg 74%
20:00 +19°C° 0 mm 1 m/s 740 mmHg 75%
21:00 +19°C° 0 mm 1 m/s 740 mmHg 76%
22:00 +18°C° 0 mm 1 m/s 740 mmHg 77%
23:00 +18°C° 0.1 mm 1 m/s 740 mmHg 79%
Mostrar mais

Necessitamos do seu Consentimento

A Meteoprog e os seus Fornecedores de Serviços podem armazenar e aceder a dados pessoais como cookies, identificadores do dispositivo ou outras tecnologias semelhantes existentes no seu dispositivo e processar estes dados para personalizar conteúdos e anúncios, assim como funcionalidades nas redes sociais e análise de tráfego.

  • Armazenar e/ou aceder a informações no seu dispositivo

    Os cookies, identificadores do dispositivo ou outras informações podem ser armazenados ou acedidos no seu dispositivo, para os fins acima indicados.

  • Anúncios e conteúdos personalizados, medição de anúncios e conteúdos, dados sobre o público-alvo e desenvolvimento de produtos

    Os anúncios e os conteúdos podem ser personalizados com base num perfil. Podem ser adicionados dados adicionais para uma maior personalização dos anúncios e dos conteúdos. A eficácia dos anúncios e dos conteúdos pode ser medida. Podem ser obtidas informações sobre o público que visualizou os anúncios e os conteúdos. Estes dados podem ser usados para desenvolver ou melhorar sistemas, softwares ou a experiência do utilizador.

Ao clicar em "Eu concordo”, permitirá o uso de cookies, identificadores do dispositivo e web beacons mencionados ou outras tecnologias semelhantes. As configurações do navegador do seu dispositivo podem ser alteradas.

Para certos fins, podem ser invocados interesses legítimos ao invés de consentimento. Pode ler mais informação sobre este assunto na nossa Política de Privacidade e Cookies.